FW1558 Weather Reports


time (UTC)temp
C
wind
direction
speed
KPH
gust
KPH
rain 1hr
cm
rain 24hr
cm
rain mn
cm
humidity
%
barometer
mb
20260506193059 8 25 4.8 9.7 0.08 1.93 1.65 92 1005.6
20260506191559 8 69 4.8 14.5 0.03 1.88 1.60 92 1005.6
20260506190059 8 15 3.2 11.3 0.03 1.85 1.57 93 1005.4
20260506184612 8 46 3.2 11.3 0.05 1.85 1.57 93 1005.4
20260506183056 8 55 3.2 12.9 0.20 1.85 1.57 93 1005.6
20260506181555 8 29 4.8 14.5 0.30 1.85 1.57 93 1005.6
20260506180055 8 22 6.4 14.5 0.30 1.83 1.55 92 1005.8
20260506174550 8 30 4.8 8.0 0.36 1.80 1.52 92 1006.3
20260506173103 8 20 3.2 9.7 0.30 1.65 1.37 92 1006.0
20260506171551 8 69 4.8 8.0 0.23 1.55 1.27 92 1005.8
20260506170044 8 55 3.2 16.1 0.25 1.52 1.24 92 1005.7
20260506164553 8 25 4.8 17.7 0.23 1.42 1.17 92 1005.8
20260506163042 9 28 6.4 17.7 0.23 1.35 1.07 93 1005.5
20260506161536 9 56 4.8 19.3 0.25 1.32 1.04 92 1005.9
20260506160034 10 59 1.6 6.4 0.23 1.24 0.97 93 1005.7
20260506154531 9 65 3.2 8.0 0.23 1.22 0.94 92 1005.8
20260506153031 10 26 3.2 9.7 0.15 1.09 0.81 92 1006.0
20260506151527 10 51 0.0 9.7 0.15 1.07 0.79 93 1006.1
20260506150026 10 36 3.2 8.0 0.15 1.02 0.71 93 1006.1
20260506144530 10 55 3.2 8.0 0.20 0.99 0.71 93 1006.4
20260506143032 10 49 1.6 6.4 0.20 0.94 0.66 93 1006.4
20260506141522 10 80 0.0 9.7 0.23 0.91 0.64 93 1006.5
20260506140023 10 59 0.0 4.8 0.23 0.86 0.58 93 1006.3
20260506134520 10 14 1.6 8.0 0.23 0.79 0.51 92 1006.8
20260506133016 10 38 3.2 12.9 0.23 0.71 0.46 93 1006.5
20260506131518 10 355 1.6 6.4 0.20 0.69 0.41 93 1006.8
20260506130016 10 49 3.2 8.0 0.15 0.64 0.36 92 1006.9
20260506124511 10 49 3.2 8.0 0.08 0.56 0.28 92 1007.3
20260506123010 10 38 1.6 11.3 0.05 0.51 0.23 92 1007.2
20260506121507 10 30 4.8 8.0 0.03 0.48 0.20 92 1007.1
20260506120006 10 40 3.2 6.4 0.03 0.48 0.20 93 1007.5
20260506114505 10 72 1.6 6.4 0.03 0.48 0.20 93 1007.2
20260506113007 10 66 1.6 4.8 0.00 0.46 0.18 93 1007.1
20260506111502 11 45 0.0 3.2 0.00 0.46 0.18 93 1007.0
20260506110002 11 11 3.2 9.7 0.00 0.46 0.18 93 1007.0
20260506104601 11 44 4.8 9.7 0.00 0.46 0.18 93 1006.9
20260506103057 11 355 4.8 12.9 0.00 0.46 0.18 94 1006.9
20260506101555 11 54 3.2 9.7 0.00 0.46 0.18 94 1006.8
20260506100054 11 26 1.6 6.4 0.00 0.46 0.18 93 1007.1
20260506094551 11 22 3.2 6.4 0.00 0.46 0.18 93 1007.2
20260506093052 11 5 0.0 3.2 0.00 0.46 0.18 93 1007.3
20260506091549 11 5 0.0 3.2 0.00 0.46 0.18 93 1007.6
20260506090047 11 5 0.0 3.2 0.00 0.46 0.18 93 1007.4
20260506084546 11 303 1.6 8.0 0.00 0.46 0.18 93 1007.8
20260506083047 11 27 0.0 0.0 0.03 0.46 0.18 93 1007.7
20260506081549 11 26 0.0 4.8 0.03 0.46 0.18 93 1007.9
20260506073040 12 28 1.6 4.8 0.03 0.43 0.15 93 1007.2
20260506071547 12 342 1.6 6.4 0.03 0.43 0.15 92 1007.4
20260506061534 12 5 1.6 6.4 0.03 0.41 0.13 92 1007.5
20260506044525 13 312 1.6 6.4 0.10 0.30 0.03 90 1007.8
20260506043021 13 65 0.0 3.2 0.08 0.28 0.00 89 1007.9
20260506041521 13 48 3.2 8.0 0.13 0.28 0.00 90 1007.6
20260506040017 13 67 3.2 11.3 0.13 0.28 0.00 90 1008.0
20260506034514 13 264 0.0 4.8 0.05 0.20 0.20 89 1007.3
20260506033011 13 177 0.0 4.8 0.05 0.20 0.20 88 1006.8
20260506031609 13 242 3.2 6.4 0.00 0.15 0.15 86 1006.5
20260506030008 13 225 1.6 4.8 0.00 0.15 0.15 86 1006.3
20260506024507 14 225 1.6 6.4 0.00 0.15 0.15 85 1006.3
20260506023006 14 229 1.6 4.8 0.00 0.15 0.15 84 1006.4
20260506021506 15 229 0.0 3.2 0.00 0.15 0.15 83 1006.4
20260506020005 15 229 1.6 3.2 0.00 0.15 0.15 82 1006.4
20260506014502 15 229 1.6 8.0 0.00 0.15 0.15 81 1005.9
20260506013102 15 229 1.6 4.8 0.00 0.15 0.15 80 1005.5
20260506011601 16 248 3.2 4.8 0.00 0.15 0.15 80 1005.6
20260506004627 16 242 0.0 4.8 0.00 0.15 0.15 76 1005.1
20260506003059 16 242 0.0 8.0 0.00 0.15 0.15 74 1005.1
20260506001601 17 201 1.6 6.4 0.00 0.15 0.15 73 1005.1
20260506000057 17 189 0.0 4.8 0.00 0.15 0.15 74 1005.0
20260505234614 17 184 1.6 3.2 0.00 0.15 0.15 71 1004.9
20260505233056 18 185 0.0 4.8 0.00 0.15 0.15 68 1005.0
20260505231557 18 182 1.6 12.9 0.00 0.15 0.15 67 1004.6
20260505230056 18 242 1.6 6.4 0.00 0.15 0.15 65 1004.6
20260505224554 18 179 1.6 4.8 0.00 0.15 0.15 68 1004.7
20260505223102 18 182 3.2 8.0 0.00 0.15 0.15 67 1004.6
20260505221607 18 327 8.0 17.7 0.00 0.15 0.15 64 1003.8
20260505220130 19 190 6.4 16.1 0.00 0.15 0.15 63 1004.8
20260505214614 20 196 4.8 17.7 0.00 0.15 0.15 62 1004.3
20260505213053 19 142 1.6 9.7 0.00 0.15 0.15 64 1003.5
20260505211610 19 192 4.8 9.7 0.03 0.15 0.15 66 1003.4
20260505210052 18 147 6.4 16.1 0.03 0.15 0.15 67 1003.5
20260505204551 18 236 4.8 16.1 0.15 0.15 0.15 72 1003.5
20260505203053 17 218 8.0 17.7 0.15 0.15 0.15 74 1003.1
20260505201601 17 261 8.0 16.1 0.13 0.13 0.13 72 1003.0
20260505200101 18 233 17.7 32.2 0.13 0.13 0.13 69 1002.9
20260505194555 23 10 16.1 41.8 0.00 0.00 0.00 47 1003.5